STARLINK-1781, 46685

Orbit data source: Space-Track

STARLINK-1781, 46685 is a payload satellite owned by SpaceX/Seattle (US) in LEO that was launched on Sun, 18 Oct 2020 UTC via an FALCON 9 launch vehicle from the Air Force Eastern Test Range (AFETR). Payload-class satellites include a variety of spacecraft equipped with specific instruments for various scientific and technological missions. These include communications satellites like Starlink; space stations such as the ISS; scientific satellites like the Hubble; Earth observation satellites from companies like Planet Labs, Umbra, and HawkEye 360; GPS; miniature CubeSats for education and research; and military/defense satellites.

Loading next visibility...
Identifier
46685, 2020-073R
Orbit
LEO
Country
Flag of USUS
Related business
Manufacturer
SpaceX/Seattle
Mission
Partially operational Commercial Communications
Bus & Motor
STARLINK, Unknown motor
Mass
260 kg wet, ~248 kg dry
Launch date (UTC)
2020-10-18 (6 years ago)
Launch vehicle
FALCON 9
Launch site
Air Force Eastern Test Range (AFETR)
Object type
Payload
Rocket body
Debris
Shape & HBR
Box + 1 Pan, 10.1 m
Radar Cross Section
13.562 m², Large (>1 m²)

Expand to show TLE details & history
Last TLE update: 7 hours ago

TLE from 7 hours ago
0 STARLINK-1781
1 46685U 20073R   26168.80390130  .00106960  00000-0  70654-3 0  9995
2 46685  53.0423 111.6118 0003012  36.7772 323.3453 15.74791254312784
Epoch: 2026-06-17T19:17Z
TLE epoch observation values (Epoch: 2026-06-17T19:17:37.072Z)
Latitude
0.00001°
Longitude
-83.84899°
Altitude
344.505 km
Speed
7.704 km/s
True Right ascension
07h 26m 26s
True Declination
0° 00' 00"
Sunlit
Object was in daylight at epoch
Visualization orbit readout
Latitude
Unknown
Longitude
Unknown
Altitude
Unknown
Speed
Unknown
Apparent Right ascension
Unknown
Apparent Declination
Unknown
Sunlit
N/A
Visualization observer readout
Local Sidereal Time
13:25:53
Azimuth
Unknown
Elevation
Unknown
Doppler factor
Unknown
Orbital elements
Apogee altitude
347.531 km
Perigee altitude
343.481 km
Semi-major axis
6,723.643 km
Eccentricity
0.0003
Inclination
53.0423°
RAAN
111.6118°
Arg. of periapsis
36.7772°
True anomaly
323.32469°
Mean anomaly
323.3453°
Eccentric anomaly
323.33499°
Mean motion
3.93674 °/min
Orbital period
91.45 mins
BSTAR
0.00070654
Loading maneuver chart data...
Computing Atmospheric mass density...

Documentation

Showing up to 5 results
|